SL-16 R/B, 24298

Orbit data source: Space-Track

SL-16 R/B, 24298 is space debris in LEO originally from a launch on Wed, 04 Sep 1996 UTC launched from the Tyuratam Missile And Space Complex (TTMTR). Debris objects in space refer to the collection of defunct objects orbiting the Earth. Examples of debris include non-operational satellites, rocket bodies, and fragments generated from explosions, collisions, or faulty payload assembly.

Loading next visibility...
Identifier
24298, 1996-051B
Orbit
LEO
Last TLE update
9 hours ago
Origin
Manufacturer
Yuzhnoe
Mission
Spacecraft
Bus & Motor
11S772, Unknown motor
Mass
9,000 kg wet, 9,000 kg dry
Launch date (UTC)
1996-09-04 (29 years ago)
Launch vehicle
Unknown
Launch site
Tyuratam Missile And Space Complex (TTMTR)
Object type
Payload
Rocket body
Debris
Shape & HBR
Cyl, 10.4 m
Radar Cross Section
37.829 m², Large (>1 m²)

Expand to show TLE details & history

TLE from 9 hours ago
0 SL-16 R/B
1 24298U 96051B   25186.57235742 -.00000193  00000-0 -77674-4 0  9993
2 24298  70.7676 338.2450 0014372 147.4840 212.7168 14.12410474486755
Epoch: 2025-07-05T13:44Z
TLE epoch observation values (Epoch: 2025-07-05T13:44:11.681Z)
Latitude
0.00001°
Longitude
-151.61214°
Altitude
862.264 km
Speed
7.417 km/s
True Right ascension
22h 32m 58s
True Declination
0° 00' 00"
Sunlit
Object was in full shadow at epoch
Visualization orbit readout
Latitude
42.0962°
Longitude
9.3113°
Altitude
846.568 km
Speed
7.439 km/s
Apparent Right ascension
04h 53m 20s
Apparent Declination
19° 42' 13"
Sunlit
Object is in daylight
Visualization observer readout
Local Sidereal Time
10:48:31
Azimuth
284.643° WNW
Elevation
13.383°
Doppler factor
1
Orbital elements
Apogee altitude
859.472 km
Perigee altitude
838.698 km
Semi-major axis
7,227.222 km
Eccentricity
0.00144
Inclination
70.7676°
RAAN
338.245°
Arg. of periapsis
147.484°
True anomaly
Unknown
Mean anomaly
212.7168°
Eccentric anomaly
Unknown
Mean motion
3.53253 °/min
Orbital period
101.91 mins
BSTAR
-0.000077674
Loading maneuver chart data...
Loading SW <> Apogee altitude chart data...
Loading historical data...
Loading historical data...
Loading historical data...
Loading historical data...
Loading historical data...
Loading historical data...
Loading historical data...

SL-16 R/B Visibility forecast

Observer location: undefined°, undefined°

Span
Click to sort rows by Start time (UTC) header in descending order
Start Az.
Max El. time (UTC)
Max El. Az.
Max El.
End time (UTC)
End Az.
5 mins2025-07-05 22:52:16.230Z284.374° WNW2025-07-05 22:54:16.230Z260.62° W15.079°2025-07-05 22:57:16.230Z227.416° WSW
6 mins2025-07-06 10:16:16.230Z134.435° SE2025-07-06 10:19:16.230Z95.519° ESE19.209°2025-07-06 10:22:16.230Z60.172° ENE
9 mins2025-07-06 11:58:16.230Z223.576° SW2025-07-06 12:02:16.230Z278.779° WNW38.329°2025-07-06 12:07:16.230Z11.356° NNE
9 mins2025-07-06 20:54:16.230Z344.883° N2025-07-06 20:58:16.230Z58.897° ENE42.702°2025-07-06 21:03:16.230Z146.645° SSE
4 mins2025-07-06 22:40:16.230Z281.768° WNW2025-07-06 22:42:16.230Z257.637° W15.009°2025-07-06 22:44:16.230Z234.627° WSW
|